Total_Precipitation_Accumulation
1.25 1.27 1.20 1.02 0.78 0.50 0.37 0.29 0.23 0.17 0.15 0.11 0.10 0.08 0.06 0.06 0.07 0.06 0.04 0.03 0.03 0.03 0.03 0.03 0.02 0.03 0.01 0.00 0.00 0.00 0.00 0.00 0.00 0.00 0.00 0.00 0.00 0.00 0.00 0.00 0.00 0.00 0.00 0.00 0.01 0.01 0.01
1.03 1.03 1.30 1.55 1.69 1.62 1.41 1.15 0.90 0.72 0.61 0.47 0.36 0.26 0.20 0.14 0.10 0.09 0.08 0.06 0.04 0.04 0.05 0.05 0.04 0.03 0.01 0.00 0.00 0.00 0.00 0.00 0.00 0.00 0.00 0.00 0.00 0.00 0.00 0.00 0.00 0.00 0.00 0.00 0.02 0.00 0.00
1.36 1.30 1.10 0.99 1.15 1.37 1.54 1.56 1.49 1.31 1.15 1.03 0.96 0.85 0.68 0.54 0.35 0.22 0.15 0.09 0.08 0.11 0.13 0.15 0.13 0.04 0.04 0.00 0.00 0.00 0.00 0.00 0.00 0.00 0.00 0.00 0.00 0.00 0.00 0.00 0.00 0.00 0.00 0.00 0.00 0.01 0.01
1.44 1.46 1.50 1.45 1.24 1.12 1.15 1.30 1.31 1.30 1.33 1.24 1.23 1.10 0.93 0.73 0.62 0.47 0.30 0.20 0.16 0.13 0.17 0.29 0.28 0.08 0.04 0.00 0.00 0.00 0.00 0.00 0.00 0.00 0.00 0.00 0.00 0.00 0.00 0.00 0.00 0.00 0.00 0.00 0.00 0.01 0.02
1.14 1.17 1.30 1.45 1.50 1.44 1.40 1.39 1.45 1.39 1.26 1.25 1.28 1.33 1.17 0.99 0.75 0.52 0.42 0.32 0.24 0.26 0.33 0.33 0.36 0.18 0.03 0.00 0.00 0.00 0.00 0.02 0.00 0.00 0.00 0.00 0.00 0.00 0.00 0.00 0.00 0.00 0.00 0.00 0.00 0.00 0.01
1.30 1.16 1.07 1.06 1.09 1.13 1.14 1.20 1.32 1.38 1.41 1.29 1.32 1.35 1.38 1.29 1.16 0.98 0.78 0.59 0.48 0.51 0.60 0.64 0.50 0.20 0.01 0.00 0.00 0.00 0.00 0.02 0.01 0.00 0.00 0.00 0.00 0.00 0.00 0.00 0.00 0.00 0.00 0.00 0.02 0.07 0.00
1.95 1.79 1.56 1.41 1.23 1.03 0.94 0.99 1.05 1.07 1.18 1.22 1.12 1.14 1.18 1.22 1.31 1.38 1.26 1.22 1.08 0.92 0.71 0.35 0.19 0.05 0.00 0.00 0.00 0.00 0.00 0.00 0.00 0.00 0.02 0.00 0.00 0.00 0.00 0.00 0.00 0.00 0.00 0.00 0.00 0.00 0.00
1.96 1.88 1.80 1.74 1.63 1.55 1.43 1.28 1.05 0.93 0.94 1.08 1.27 1.27 1.13 1.14 1.32 1.51 1.40 1.23 0.76 0.39 0.36 0.09 0.01 0.00 0.00 0.00 0.00 0.00 0.00 0.03 0.02 0.03 0.02 0.03 0.01 0.00 0.00 0.00 0.00 0.00 0.00 0.00 0.00 0.00 0.00
1.83 1.87 1.77 1.68 1.64 1.55 1.50 1.46 1.31 1.01 0.81 0.84 1.04 1.41 1.62 1.51 1.68 1.91 1.74 1.11 0.53 0.44 0.57 0.21 0.05 0.01 0.00 0.00 0.00 0.00 0.00 0.01 0.03 0.02 0.03 0.03 0.02 0.00 0.00 0.00 0.00 0.00 0.00 0.00 0.00 0.00 0.00
1.75 1.68 1.67 1.70 1.76 1.77 1.71 1.61 1.28 1.06 1.03 1.08 1.13 1.39 1.79 2.38 3.00 1.97 1.73 0.81 0.75 0.92 1.39 0.52 0.06 0.03 0.01 0.00 0.00 0.00 0.00 0.00 0.01 0.01 0.07 0.09 0.00 0.01 0.01 0.00 0.01 0.01 0.00 0.01 0.00 0.04 0.01
1.75 1.77 1.71 1.63 1.62 1.63 1.64 1.70 1.67 1.47 1.22 1.16 1.28 1.63 2.01 2.38 2.01 1.51 0.96 0.58 1.32 2.13 3.49 0.72 0.03 0.00 0.00 0.01 0.01 0.00 0.00 0.00 0.01 0.02 0.10 0.11 0.01 0.01 0.00 0.00 0.01 0.01 0.00 0.02 0.03 0.06 0.12
1.67 1.69 1.79 1.82 1.63 1.49 1.50 1.57 1.56 1.52 1.50 1.41 1.42 1.65 2.33 2.50 2.07 1.04 0.59 1.26 2.92 5.22 4.68 0.61 0.02 0.01 0.01 0.00 0.00 0.00 0.00 0.00 0.02 0.15 0.06 0.01 0.01 0.05 0.02 0.00 0.00 0.00 0.04 0.10 0.13 0.17 0.32
2.20 1.79 1.65 1.69 1.72 1.78 1.60 1.44 1.38 1.53 1.63 1.66 1.78 1.91 2.27 1.91 2.09 1.32 1.72 3.34 5.96 6.31 2.47 0.38 0.03 0.01 0.01 0.00 0.00 0.00 0.01 0.01 0.05 0.17 0.14 0.04 0.05 0.03 0.00 0.02 0.01 0.01 0.17 0.47 0.45 0.21 0.16
2.17 2.13 1.98 1.76 1.64 1.65 1.68 1.62 1.50 1.49 1.64 1.87 2.19 2.51 2.48 2.08 1.68 2.12 3.73 5.78 7.01 3.60 1.18 0.17 0.03 0.04 0.02 0.01 0.01 0.02 0.07 0.05 0.03 0.07 0.19 0.24 0.14 0.04 0.06 0.04 0.06 0.05 0.24 0.46 0.51 0.19 0.09
2.15 2.10 1.99 1.79 1.55 1.50 1.53 1.63 1.72 1.87 1.98 2.18 2.91 3.26 3.33 2.86 2.65 3.40 5.72 8.81 5.55 1.77 0.34 0.08 0.09 0.16 0.13 0.09 0.10 0.11 0.13 0.13 0.07 0.21 0.58 0.56 0.24 0.03 0.05 0.04 0.15 0.30 0.33 0.16 0.83 0.62 0.62
2.67 2.23 2.09 1.95 1.74 1.58 1.57 1.51 1.78 2.08 2.30 2.60 2.73 3.22 3.22 2.75 3.32 4.92 7.42 6.93 3.15 0.81 0.14 0.11 0.32 0.22 0.24 0.11 0.17 0.24 0.21 0.26 0.20 0.33 0.73 1.01 1.19 0.17 0.09 0.20 0.19 0.31 0.29 0.88 1.95 1.79 0.94
3.33 2.65 2.27 2.20 2.08 1.61 1.52 1.52 1.67 1.97 2.19 2.92 3.34 4.30 3.03 2.53 4.93 7.84 8.59 4.92 2.15 0.64 0.33 0.44 0.34 0.46 0.27 0.22 0.31 0.26 0.36 0.37 0.54 0.28 0.51 0.87 1.36 0.70 0.38 0.42 0.33 0.51 0.93 1.67 1.91 1.44 1.28
3.24 3.37 2.90 2.51 2.62 2.21 1.66 1.76 1.98 2.13 2.74 3.95 4.47 4.69 2.84 3.11 6.24 7.23 5.53 2.86 1.36 0.56 0.58 0.87 0.66 0.38 0.42 0.40 0.44 0.53 0.56 0.55 0.54 0.39 0.35 0.66 1.41 1.06 0.42 0.20 0.22 0.68 1.36 2.36 3.45 2.70 2.05
3.15 3.21 3.49 3.13 3.03 3.22 2.47 2.07 2.26 2.53 3.06 3.91 5.45 4.08 3.90 4.30 5.37 4.16 2.81 2.13 1.34 0.64 0.61 1.29 1.07 0.66 0.56 0.47 0.93 0.52 0.58 0.65 0.67 0.48 0.37 0.65 1.28 1.40 0.92 0.74 0.66 1.08 1.23 1.68 2.53 2.97 2.89
2.73 2.96 2.81 3.34 3.25 3.77 3.46 2.82 2.52 2.71 3.66 4.52 6.33 5.79 6.14 6.09 3.85 2.36 1.78 1.55 1.29 0.72 0.48 0.74 0.97 0.55 0.77 1.09 1.01 0.97 0.58 0.75 0.94 0.68 0.38 0.95 0.78 1.13 0.94 0.75 0.99 1.09 0.92 1.32 2.12 2.47 1.64
2.02 2.46 2.86 2.90 3.50 3.88 4.19 3.87 3.54 3.58 4.29 7.19 8.28 4.53 2.87 3.74 2.67 2.00 1.74 1.71 0.99 0.97 0.96 0.70 0.87 0.59 0.66 1.25 1.18 0.83 0.62 0.98 1.19 0.91 0.64 1.14 1.13 1.13 0.84 0.39 0.48 0.76 0.79 0.81 1.38 1.10 1.31
1.67 1.76 2.34 3.00 3.51 3.43 3.91 4.23 4.03 4.13 5.70 9.48 8.27 2.89 1.48 1.01 0.91 1.56 1.54 1.59 0.87 0.80 1.36 1.16 1.06 0.70 0.68 0.82 0.75 0.88 0.92 0.84 1.10 0.80 0.93 1.42 1.73 1.32 1.37 0.53 0.70 0.90 0.88 0.58 0.81 0.69 0.66
1.52 1.48 1.90 2.50 2.86 2.96 3.54 4.07 4.06 4.13 6.73 11.60 6.59 1.64 1.85 1.49 0.80 1.26 1.45 1.09 0.91 1.13 1.04 0.61 0.78 0.78 0.86 0.92 0.69 0.52 0.63 0.79 0.74 0.77 1.07 1.59 2.33 2.14 1.96 0.66 0.86 1.47 0.85 0.62 0.51 0.30 0.25
1.68 1.60 1.64 2.07 2.23 2.69 3.20 3.52 4.07 4.44 5.37 6.24 3.77 1.69 2.42 2.43 1.12 0.95 0.54 0.52 0.68 0.79 1.75 0.89 0.73 0.81 0.79 0.61 0.80 1.03 1.12 1.13 1.12 1.12 1.24 1.80 1.81 2.33 2.24 1.18 2.01 1.55 0.45 0.44 0.52 0.40 0.19
1.91 1.78 1.83 2.04 2.24 2.45 3.03 3.11 3.60 4.44 4.71 4.38 3.29 2.10 2.63 2.25 1.08 0.83 0.56 0.59 0.57 0.86 1.14 1.34 1.08 0.93 0.72 0.68 1.48 2.32 2.36 2.12 1.54 1.27 1.47 1.64 1.60 2.30 2.18 1.59 1.26 0.42 0.31 0.40 0.86 0.78 0.41
1.94 1.87 1.87 1.97 2.13 2.31 2.66 2.83 2.82 3.78 4.67 4.69 4.03 2.71 2.97 2.93 1.27 0.61 0.60 0.40 0.65 1.07 1.26 1.10 1.23 1.29 1.34 1.60 2.36 2.54 1.94 1.56 1.17 1.02 0.74 1.04 1.61 2.34 2.33 1.79 1.10 0.27 0.12 0.27 0.60 1.44 1.01
1.67 1.72 1.55 1.68 1.96 2.04 2.37 2.65 2.53 2.98 3.93 4.95 4.84 2.75 4.27 4.25 1.19 0.69 1.00 0.78 0.54 0.72 1.05 0.95 1.16 1.42 1.39 2.23 2.97 2.29 1.43 0.67 0.80 0.74 0.93 1.36 2.27 2.51 1.96 1.79 0.59 0.11 0.09 0.22 1.32 1.47 1.11
1.62 1.76 1.52 1.56 1.65 1.72 2.02 2.25 2.34 2.54 3.46 4.23 5.18 2.51 3.97 4.63 1.80 0.89 0.86 0.72 0.55 0.63 1.11 1.13 1.61 1.56 1.95 1.92 1.82 1.86 1.67 1.25 0.95 0.64 0.57 0.98 1.80 1.92 1.84 2.07 0.90 0.32 0.47 0.95 1.30 1.22 1.17
1.57 1.78 1.56 1.52 1.48 1.59 1.73 1.92 2.22 2.42 3.16 3.81 4.72 2.94 3.19 4.92 3.09 0.97 1.02 0.68 0.44 0.46 0.80 1.03 1.19 1.26 1.46 1.76 1.47 1.33 1.24 1.14 1.07 1.16 0.61 0.78 0.98 1.35 1.40 1.16 0.67 0.38 0.50 0.92 0.91 0.96 0.96